STARLINK-5679, 55467

Orbit data source: Space-Track

STARLINK-5679, 55467 is a payload satellite owned by SpaceX/Seattle (US) in LEO that was launched on Thu, 02 Feb 2023 UTC via an FALCON 9 launch vehicle from the Air Force Eastern Test Range (AFETR). Payload-class satellites include a variety of spacecraft equipped with specific instruments for various scientific and technological missions. These include communications satellites like Starlink; space stations such as the ISS; scientific satellites like the Hubble; Earth observation satellites from companies like Planet Labs, Umbra, and HawkEye 360; GPS; miniature CubeSats for education and research; and military/defense satellites.

Loading next visibility...
Identifier
55467, 2023-015U
Orbit
LEO
Country
Flag of USUS
Related business
Manufacturer
SpaceX/Seattle
Mission
Operational Commercial Communications
Bus & Motor
STARLINK, Unknown motor
Mass
305 kg wet, ~290 kg dry
Launch date (UTC)
2023-02-02 (3 years ago)
Launch vehicle
FALCON 9
Launch site
Air Force Eastern Test Range (AFETR)
Object type
Payload
Rocket body
Debris
Shape & HBR
Box + 1 Pan, 10.1 m
Radar Cross Section
13.562 m², Large (>1 m²)

Expand to show TLE details & history
Last TLE update: 6 hours ago

TLE from 6 hours ago
0 STARLINK-5679
1 55467U 23015U   26132.82416111  .00000189  00000-0  16379-4 0  9994
2 55467  43.0029 326.2557 0001162 253.2720 106.8004 15.27577789180532
Epoch: 2026-05-12T19:46Z
TLE epoch observation values (Epoch: 2026-05-12T19:46:47.519Z)
Latitude
-0.00005°
Longitude
158.96465°
Altitude
483.062 km
Speed
7.626 km/s
True Right ascension
21h 45m 01s
True Declination
0° 00' 00"
Sunlit
Object was in daylight at epoch
Visualization orbit readout
Latitude
Unknown
Longitude
Unknown
Altitude
Unknown
Speed
Unknown
Apparent Right ascension
Unknown
Apparent Declination
Unknown
Sunlit
N/A
Visualization observer readout
Local Sidereal Time
10:33:48
Azimuth
Unknown
Elevation
Unknown
Doppler factor
Unknown
Orbital elements
Apogee altitude
485.798 km
Perigee altitude
484.203 km
Semi-major axis
6,863.137 km
Eccentricity
0.00012
Inclination
43.0029°
RAAN
326.2557°
Arg. of periapsis
253.272°
True anomaly
106.81315°
Mean anomaly
106.8004°
Eccentric anomaly
106.80677°
Mean motion
3.81732 °/min
Orbital period
94.31 mins
BSTAR
0.000016379
Loading maneuver chart data...
Computing Atmospheric mass density...
Loading historical data...
Loading historical data...
Loading historical data...
Loading historical data...
Loading historical data...
Loading historical data...
Loading historical data...

Documentation

Showing up to 5 results
|